When you browse on this site, cookies collect data to enhance your experience and personalize the content and advertising you see.
Visit our Privacy Policy to learn more. By continuing to use the site, you agree to this use of cookies and data.
  • En España
  • Lista de países
  • Para 7 días
  • Temperatura del agua
  • El tiempo en el mapa
  • Informadores
  • user-avatar
    Iniciar sesión

    Tiempo cada hora Reading

    Hoy, 2 Junio, Martes

    Tiempo Temperatura Precipitaciones Viento Presión Humedad
    00:00 +13°C° 0 mm 2 mps 763 mmHg 89%
    01:00 +13°C° 0 mm 2 mps 763 mmHg 89%
    02:00 +12°C° 0 mm 2 mps 763 mmHg 88%
    03:00 +10°C° 0 mm 2 mps 763 mmHg 88%
    04:00 +11°C° 0 mm 3 mps 762 mmHg 85%
    05:00 +11°C° 0 mm 3 mps 762 mmHg 82%
    06:00 +12°C° 0 mm 3 mps 762 mmHg 79%
    07:00 +14°C° 0 mm 3 mps 762 mmHg 74%
    08:00 +17°C° 0 mm 3 mps 762 mmHg 69%
    09:00 +19°C° 0 mm 3 mps 762 mmHg 63%
    10:00 +19°C° 0 mm 3 mps 762 mmHg 60%
    11:00 +20°C° 0 mm 3 mps 761 mmHg 57%
    12:00 +21°C° 0 mm 3 mps 761 mmHg 54%
    13:00 +22°C° 0 mm 3 mps 761 mmHg 54%
    14:00 +22°C° 0 mm 3 mps 760 mmHg 54%
    15:00 +22°C° 0 mm 3 mps 760 mmHg 54%
    16:00 +21°C° 0 mm 3 mps 759 mmHg 58%
    17:00 +21°C° 0 mm 3 mps 759 mmHg 62%
    18:00 +20°C° 0 mm 2 mps 758 mmHg 66%
    19:00 +18°C° 0 mm 2 mps 758 mmHg 70%
    20:00 +16°C° 0 mm 1 mps 758 mmHg 75%
    21:00 +14°C° 0 mm 1 mps 758 mmHg 80%
    22:00 +14°C° 0 mm 1 mps 757 mmHg 79%
    23:00 +14°C° 0 mm 1 mps 757 mmHg 79%

    Mañana, 3 Junio, Miércoles

    Tiempo Temperatura Precipitaciones Viento Presión Humedad
    00:00 +13°C° 0 mm 1 mps 756 mmHg 78%
    01:00 +13°C° 0 mm 1 mps 756 mmHg 80%
    02:00 +13°C° 0 mm 1 mps 755 mmHg 81%
    03:00 +13°C° 0 mm 1 mps 754 mmHg 82%
    04:00 +14°C° 0 mm 1 mps 754 mmHg 80%
    05:00 +15°C° 0 mm 1 mps 754 mmHg 78%
    06:00 +15°C° 0 mm 2 mps 753 mmHg 76%
    07:00 +15°C° 0 mm 2 mps 753 mmHg 76%
    08:00 +16°C° 0 mm 3 mps 753 mmHg 76%
    09:00 +16°C° 0 mm 3 mps 753 mmHg 76%
    10:00 +15°C° 0.3 mm 4 mps 753 mmHg 78%
    11:00 +15°C° 0.3 mm 4 mps 752 mmHg 80%
    12:00 +15°C° 0.3 mm 5 mps 752 mmHg 82%
    13:00 +15°C° 0.1 mm 5 mps 752 mmHg 80%
    14:00 +15°C° 0.1 mm 5 mps 752 mmHg 78%
    15:00 +15°C° 0.1 mm 6 mps 752 mmHg 76%
    16:00 +15°C° 0 mm 6 mps 752 mmHg 77%
    17:00 +14°C° 0 mm 6 mps 751 mmHg 78%
    18:00 +13°C° 0 mm 6 mps 751 mmHg 78%
    19:00 +13°C° 0 mm 6 mps 751 mmHg 77%
    20:00 +12°C° 0 mm 5 mps 752 mmHg 76%
    21:00 +12°C° 0 mm 5 mps 752 mmHg 76%
    22:00 +10°C° 0 mm 5 mps 752 mmHg 78%
    23:00 +10°C° 0 mm 5 mps 752 mmHg 80%

    Pasado mañana, 4 Junio, Jueves

    Tiempo Temperatura Precipitaciones Viento Presión Humedad
    00:00 +10°C° 0 mm 4 mps 752 mmHg 82%
    01:00 +8°C° 0 mm 4 mps 751 mmHg 87%
    02:00 +8°C° 0 mm 4 mps 751 mmHg 91%
    03:00 +7°C° 0 mm 4 mps 751 mmHg 95%
    04:00 +8°C° 0 mm 4 mps 751 mmHg 91%
    05:00 +9°C° 0 mm 5 mps 750 mmHg 87%
    06:00 +9°C° 0 mm 5 mps 750 mmHg 84%
    07:00 +10°C° 0 mm 5 mps 750 mmHg 78%
    08:00 +12°C° 0 mm 5 mps 750 mmHg 73%
    09:00 +12°C° 0 mm 5 mps 750 mmHg 68%
    10:00 +13°C° 0 mm 6 mps 750 mmHg 65%
    11:00 +13°C° 0 mm 6 mps 750 mmHg 62%
    12:00 +14°C° 0 mm 6 mps 750 mmHg 59%
    13:00 +14°C° 0.1 mm 6 mps 749 mmHg 60%
    14:00 +14°C° 0.1 mm 5 mps 749 mmHg 61%
    15:00 +14°C° 0.1 mm 5 mps 748 mmHg 61%
    16:00 +14°C° 0.2 mm 4 mps 748 mmHg 65%
    17:00 +13°C° 0.2 mm 4 mps 748 mmHg 68%
    18:00 +13°C° 0.2 mm 3 mps 748 mmHg 71%
    19:00 +12°C° 0.1 mm 3 mps 748 mmHg 77%
    20:00 +10°C° 0.1 mm 3 mps 748 mmHg 83%
    21:00 +9°C° 0.1 mm 3 mps 748 mmHg 89%
    22:00 +9°C° 0.3 mm 3 mps 748 mmHg 91%
    23:00 +8°C° 0.3 mm 3 mps 748 mmHg 93%

    5 Junio, Viernes

    Tiempo Temperatura Precipitaciones Viento Presión Humedad
    00:00 +8°C° 0.3 mm 3 mps 748 mmHg 95%
    01:00 +7°C° 0.1 mm 3 mps 748 mmHg 95%
    02:00 +7°C° 0.1 mm 3 mps 748 mmHg 94%
    03:00 +6°C° 0.1 mm 2 mps 748 mmHg 94%
    04:00 +5°C° 0 mm 3 mps 748 mmHg 91%
    05:00 +7°C° 0 mm 3 mps 748 mmHg 88%
    06:00 +7°C° 0 mm 3 mps 749 mmHg 85%
    07:00 +8°C° 0 mm 4 mps 749 mmHg 76%
    08:00 +11°C° 0 mm 4 mps 749 mmHg 67%
    09:00 +13°C° 0 mm 4 mps 749 mmHg 58%
    10:00 +13°C° 0 mm 4 mps 749 mmHg 59%
    11:00 +14°C° 0 mm 5 mps 749 mmHg 59%
    12:00 +15°C° 0 mm 5 mps 749 mmHg 60%
    13:00 +15°C° 0.2 mm 5 mps 748 mmHg 63%
    14:00 +14°C° 0.2 mm 6 mps 748 mmHg 66%
    15:00 +14°C° 0.2 mm 7 mps 748 mmHg 70%
    16:00 +14°C° 0 mm 6 mps 748 mmHg 68%
    17:00 +14°C° 0 mm 6 mps 748 mmHg 65%
    18:00 +13°C° 0 mm 6 mps 747 mmHg 63%
    19:00 +12°C° 0 mm 5 mps 747 mmHg 70%
    20:00 +10°C° 0 mm 5 mps 747 mmHg 77%
    21:00 +10°C° 0 mm 4 mps 747 mmHg 84%
    22:00 +10°C° 0.2 mm 4 mps 747 mmHg 88%
    23:00 +11°C° 0.2 mm 4 mps 747 mmHg 91%

    6 Junio, Sábado

    Tiempo Temperatura Precipitaciones Viento Presión Humedad
    00:00 +11°C° 0.2 mm 4 mps 747 mmHg 95%
    01:00 +10°C° 0.1 mm 4 mps 747 mmHg 94%
    02:00 +10°C° 0.1 mm 4 mps 747 mmHg 94%
    03:00 +10°C° 0.1 mm 4 mps 747 mmHg 93%
    04:00 +10°C° 0 mm 4 mps 747 mmHg 93%
    05:00 +10°C° 0 mm 4 mps 747 mmHg 92%
    06:00 +9°C° 0 mm 5 mps 747 mmHg 92%
    07:00 +10°C° 0.1 mm 5 mps 748 mmHg 86%
    08:00 +12°C° 0.1 mm 5 mps 748 mmHg 79%
    09:00 +13°C° 0.1 mm 6 mps 748 mmHg 73%
    10:00 +14°C° 0.1 mm 6 mps 748 mmHg 66%
    11:00 +15°C° 0.1 mm 7 mps 749 mmHg 60%
    12:00 +15°C° 0.1 mm 7 mps 749 mmHg 53%
    13:00 +15°C° 0 mm 7 mps 749 mmHg 53%
    14:00 +15°C° 0 mm 7 mps 749 mmHg 52%
    15:00 +15°C° 0 mm 6 mps 749 mmHg 52%
    16:00 +14°C° 0.1 mm 6 mps 749 mmHg 56%
    17:00 +13°C° 0.1 mm 6 mps 749 mmHg 60%
    18:00 +11°C° 0.1 mm 6 mps 749 mmHg 64%
    19:00 +10°C° 0.1 mm 5 mps 750 mmHg 71%
    20:00 +8°C° 0.1 mm 4 mps 750 mmHg 77%
    21:00 +7°C° 0.1 mm 3 mps 751 mmHg 84%
    22:00 +5°C° 0 mm 4 mps 751 mmHg 84%
    23:00 +4°C° 0 mm 4 mps 751 mmHg 84%

    7 Junio, Domingo

    Tiempo Temperatura Precipitaciones Viento Presión Humedad
    00:00 +4°C° 0 mm 4 mps 751 mmHg 85%
    01:00 +3°C° 0 mm 4 mps 751 mmHg 85%
    02:00 +3°C° 0 mm 4 mps 751 mmHg 86%
    03:00 +3°C° 0 mm 4 mps 751 mmHg 87%
    04:00 +3°C° 0 mm 5 mps 751 mmHg 82%
    05:00 +5°C° 0 mm 5 mps 752 mmHg 78%
    06:00 +5°C° 0 mm 6 mps 752 mmHg 74%
    07:00 +8°C° 0.1 mm 6 mps 752 mmHg 69%
    08:00 +9°C° 0.1 mm 7 mps 753 mmHg 65%
    09:00 +10°C° 0.1 mm 7 mps 753 mmHg 60%
    10:00 +10°C° 0.1 mm 7 mps 753 mmHg 58%
    11:00 +11°C° 0.1 mm 7 mps 753 mmHg 57%
    12:00 +11°C° 0.1 mm 7 mps 754 mmHg 55%
    13:00 +12°C° 0.1 mm 7 mps 754 mmHg 55%
    14:00 +12°C° 0.1 mm 7 mps 754 mmHg 54%
    15:00 +12°C° 0.1 mm 7 mps 754 mmHg 54%
    16:00 +13°C° 0 mm 6 mps 754 mmHg 56%
    17:00 +11°C° 0 mm 6 mps 755 mmHg 57%
    18:00 +12°C° 0 mm 5 mps 755 mmHg 59%
    19:00 +11°C° 0 mm 4 mps 755 mmHg 67%
    20:00 +8°C° 0 mm 4 mps 755 mmHg 74%
    21:00 +8°C° 0 mm 3 mps 756 mmHg 82%
    22:00 +7°C° 0 mm 3 mps 756 mmHg 84%
    23:00 +5°C° 0 mm 3 mps 756 mmHg 86%
    Mostrar más